#datetime,building,power
2023-04-19T00:00:00,mfh,41.83
2023-04-19T00:01:00,mfh,41.81
2023-04-19T00:02:00,mfh,41.73
2023-04-19T00:03:00,mfh,41.13
2023-04-19T00:04:00,mfh,41.22
2023-04-19T00:05:00,mfh,41.25
2023-04-19T00:06:00,mfh,41.73
2023-04-19T00:07:00,mfh,41.99
2023-04-19T00:08:00,mfh,41.75
2023-04-19T00:09:00,mfh,41.68
2023-04-19T00:10:00,mfh,41.68
2023-04-19T00:11:00,mfh,42.10
2023-04-19T00:12:00,mfh,41.04
2023-04-19T00:13:00,mfh,41.05
2023-04-19T00:14:00,mfh,41.04
2023-04-19T00:15:00,mfh,41.66
2023-04-19T00:16:00,mfh,41.61
2023-04-19T00:17:00,mfh,42.24
2023-04-19T00:18:00,mfh,41.65
2023-04-19T00:19:00,mfh,41.53
2023-04-19T00:20:00,mfh,41.63
2023-04-19T00:21:00,mfh,40.97
2023-04-19T00:22:00,mfh,40.87
2023-04-19T00:23:00,mfh,41.29
2023-04-19T00:24:00,mfh,42.01
2023-04-19T00:25:00,mfh,41.80
2023-04-19T00:26:00,mfh,41.82
2023-04-19T00:27:00,mfh,41.92
2023-04-19T00:28:00,mfh,42.65
2023-04-19T00:29:00,mfh,41.90
2023-04-19T00:30:00,mfh,41.15
2023-04-19T00:31:00,mfh,41.56
2023-04-19T00:32:00,mfh,41.65
2023-04-19T00:33:00,mfh,42.77
2023-04-19T00:34:00,mfh,41.90
2023-04-19T00:35:00,mfh,41.81
2023-04-19T00:36:00,mfh,41.78
2023-04-19T00:37:00,mfh,41.77
2023-04-19T00:38:00,mfh,42.16
2023-04-19T00:39:00,mfh,42.17
2023-04-19T00:40:00,mfh,41.36
2023-04-19T00:41:00,mfh,41.40
2023-04-19T00:42:00,mfh,41.46
2023-04-19T00:43:00,mfh,42.31
2023-04-19T00:44:00,mfh,42.68
2023-04-19T00:45:00,mfh,42.33
2023-04-19T00:46:00,mfh,42.41
2023-04-19T00:47:00,mfh,42.35
2023-04-19T00:48:00,mfh,42.24
2023-04-19T00:49:00,mfh,41.46
2023-04-19T00:50:00,mfh,41.38
2023-04-19T00:51:00,mfh,41.28
2023-04-19T00:52:00,mfh,42.63
2023-04-19T00:53:00,mfh,42.34
2023-04-19T00:54:00,mfh,41.97
2023-04-19T00:55:00,mfh,41.96
2023-04-19T00:56:00,mfh,60.40
2023-04-19T00:57:00,mfh,61.25
2023-04-19T00:58:00,mfh,67.90
2023-04-19T00:59:00,mfh,68.10
2023-04-19T01:00:00,mfh,67.54
2023-04-19T01:01:00,mfh,66.91
2023-04-19T01:02:00,mfh,66.97
2023-04-19T01:03:00,mfh,66.71
2023-04-19T01:04:00,mfh,66.11
2023-04-19T01:05:00,mfh,65.86
2023-04-19T01:06:00,mfh,63.73
2023-04-19T01:07:00,mfh,59.90
2023-04-19T01:08:00,mfh,59.86
2023-04-19T01:09:00,mfh,59.81
2023-04-19T01:10:00,mfh,59.77
2023-04-19T01:11:00,mfh,60.29
2023-04-19T01:12:00,mfh,60.19
2023-04-19T01:13:00,mfh,54.25
2023-04-19T01:14:00,mfh,47.72
2023-04-19T01:15:00,mfh,47.63
2023-04-19T01:16:00,mfh,47.76
2023-04-19T01:17:00,mfh,40.20
2023-04-19T01:18:00,mfh,40.15
2023-04-19T01:19:00,mfh,40.23
2023-04-19T01:20:00,mfh,40.91
2023-04-19T01:21:00,mfh,41.04
2023-04-19T01:22:00,mfh,41.05
2023-04-19T01:23:00,mfh,41.17
2023-04-19T01:24:00,mfh,41.28
2023-04-19T01:25:00,mfh,41.35
2023-04-19T01:26:00,mfh,40.80
2023-04-19T01:27:00,mfh,40.80
2023-04-19T01:28:00,mfh,40.75
2023-04-19T01:29:00,mfh,41.37
2023-04-19T01:30:00,mfh,41.44
2023-04-19T01:31:00,mfh,42.24
2023-04-19T01:32:00,mfh,42.19
2023-04-19T01:33:00,mfh,41.51
2023-04-19T01:34:00,mfh,41.43
2023-04-19T01:35:00,mfh,42.16
2023-04-19T01:36:00,mfh,41.03
2023-04-19T01:37:00,mfh,41.46
2023-04-19T01:38:00,mfh,41.65
2023-04-19T01:39:00,mfh,41.64
2023-04-19T01:40:00,mfh,41.89
2023-04-19T01:41:00,mfh,42.05
2023-04-19T01:42:00,mfh,42.49
2023-04-19T01:43:00,mfh,41.86
2023-04-19T01:44:00,mfh,41.09
2023-04-19T01:45:00,mfh,41.14
2023-04-19T01:46:00,mfh,41.59
2023-04-19T01:47:00,mfh,41.17
2023-04-19T01:48:00,mfh,41.60
2023-04-19T01:49:00,mfh,41.66
2023-04-19T01:50:00,mfh,41.86
2023-04-19T01:51:00,mfh,41.73
2023-04-19T01:52:00,mfh,41.84
2023-04-19T01:53:00,mfh,42.04
2023-04-19T01:54:00,mfh,41.25
2023-04-19T01:55:00,mfh,41.91
2023-04-19T01:56:00,mfh,41.25
2023-04-19T01:57:00,mfh,41.81
2023-04-19T01:58:00,mfh,41.83
2023-04-19T01:59:00,mfh,42.31
2023-04-19T02:00:00,mfh,41.77
2023-04-19T02:01:00,mfh,41.82
2023-04-19T02:02:00,mfh,41.28
2023-04-19T02:03:00,mfh,41.25
2023-04-19T02:04:00,mfh,42.21
2023-04-19T02:05:00,mfh,41.51
2023-04-19T02:06:00,mfh,41.69
2023-04-19T02:07:00,mfh,41.82
2023-04-19T02:08:00,mfh,41.90
2023-04-19T02:09:00,mfh,41.82
2023-04-19T02:10:00,mfh,41.88
2023-04-19T02:11:00,mfh,41.88
2023-04-19T02:12:00,mfh,41.19
2023-04-19T02:13:00,mfh,41.71
2023-04-19T02:14:00,mfh,41.36
2023-04-19T02:15:00,mfh,41.92
2023-04-19T02:16:00,mfh,41.78
2023-04-19T02:17:00,mfh,42.54
2023-04-19T02:18:00,mfh,41.75
2023-04-19T02:19:00,mfh,41.60
2023-04-19T02:20:00,mfh,41.83
2023-04-19T02:21:00,mfh,41.14
2023-04-19T02:22:00,mfh,41.15
2023-04-19T02:23:00,mfh,41.13
2023-04-19T02:24:00,mfh,42.75
2023-04-19T02:25:00,mfh,41.73
2023-04-19T02:26:00,mfh,42.88
2023-04-19T02:27:00,mfh,41.90
2023-04-19T02:28:00,mfh,41.84
2023-04-19T02:29:00,mfh,41.89
2023-04-19T02:30:00,mfh,41.19
2023-04-19T02:31:00,mfh,41.19
2023-04-19T02:32:00,mfh,41.17
2023-04-19T02:33:00,mfh,41.21
2023-04-19T02:34:00,mfh,42.00
2023-04-19T02:35:00,mfh,41.92
2023-04-19T02:36:00,mfh,41.73
2023-04-19T02:37:00,mfh,41.89
2023-04-19T02:38:00,mfh,42.46
2023-04-19T02:39:00,mfh,41.91
2023-04-19T02:40:00,mfh,41.23
2023-04-19T02:41:00,mfh,41.23
2023-04-19T02:42:00,mfh,41.21
2023-04-19T02:43:00,mfh,41.84
2023-04-19T02:44:00,mfh,42.83
2023-04-19T02:45:00,mfh,42.66
2023-04-19T02:46:00,mfh,41.98
2023-04-19T02:47:00,mfh,41.65
2023-04-19T02:48:00,mfh,41.14
2023-04-19T02:49:00,mfh,41.13
2023-04-19T02:50:00,mfh,41.05
2023-04-19T02:51:00,mfh,41.10
2023-04-19T02:52:00,mfh,41.72
2023-04-19T02:53:00,mfh,41.90
2023-04-19T02:54:00,mfh,41.68
2023-04-19T02:55:00,mfh,42.41
2023-04-19T02:56:00,mfh,41.80
2023-04-19T02:57:00,mfh,42.29
2023-04-19T02:58:00,mfh,41.24
2023-04-19T02:59:00,mfh,41.23
2023-04-19T03:00:00,mfh,41.28
2023-04-19T03:01:00,mfh,41.39
2023-04-19T03:02:00,mfh,42.22
2023-04-19T03:03:00,mfh,42.61
2023-04-19T03:04:00,mfh,42.05
2023-04-19T03:05:00,mfh,42.16
2023-04-19T03:06:00,mfh,42.79
2023-04-19T03:07:00,mfh,41.43
2023-04-19T03:08:00,mfh,41.29
2023-04-19T03:09:00,mfh,41.27
2023-04-19T03:10:00,mfh,41.93
2023-04-19T03:11:00,mfh,41.85
2023-04-19T03:12:00,mfh,41.88
2023-04-19T03:13:00,mfh,41.91
2023-04-19T03:14:00,mfh,41.83
2023-04-19T03:15:00,mfh,43.29
2023-04-19T03:16:00,mfh,41.92
2023-04-19T03:17:00,mfh,41.19
2023-04-19T03:18:00,mfh,41.01
2023-04-19T03:19:00,mfh,41.05
2023-04-19T03:20:00,mfh,41.71
2023-04-19T03:21:00,mfh,41.72
2023-04-19T03:22:00,mfh,41.70
2023-04-19T03:23:00,mfh,41.65
2023-04-19T03:24:00,mfh,41.73
2023-04-19T03:25:00,mfh,40.92
2023-04-19T03:26:00,mfh,41.41
2023-04-19T03:27:00,mfh,41.35
2023-04-19T03:28:00,mfh,41.06
2023-04-19T03:29:00,mfh,42.21
2023-04-19T03:30:00,mfh,41.75
2023-04-19T03:31:00,mfh,41.68
2023-04-19T03:32:00,mfh,41.70
2023-04-19T03:33:00,mfh,41.69
2023-04-19T03:34:00,mfh,41.73
2023-04-19T03:35:00,mfh,41.27
2023-04-19T03:36:00,mfh,41.30
2023-04-19T03:37:00,mfh,41.32
2023-04-19T03:38:00,mfh,41.90
2023-04-19T03:39:00,mfh,41.87
2023-04-19T03:40:00,mfh,41.89
2023-04-19T03:41:00,mfh,41.93
2023-04-19T03:42:00,mfh,42.01
2023-04-19T03:43:00,mfh,41.40
2023-04-19T03:44:00,mfh,41.83
2023-04-19T03:45:00,mfh,41.79
2023-04-19T03:46:00,mfh,42.49
2023-04-19T03:47:00,mfh,42.57
2023-04-19T03:48:00,mfh,43.20
2023-04-19T03:49:00,mfh,41.73
2023-04-19T03:50:00,mfh,42.05
2023-04-19T03:51:00,mfh,41.73
2023-04-19T03:52:00,mfh,41.67
2023-04-19T03:53:00,mfh,40.98
2023-04-19T03:54:00,mfh,41.35
2023-04-19T03:55:00,mfh,40.98
2023-04-19T03:56:00,mfh,41.74
2023-04-19T03:57:00,mfh,41.92
2023-04-19T03:58:00,mfh,41.90
2023-04-19T03:59:00,mfh,41.95
2023-04-19T04:00:00,mfh,42.18
2023-04-19T04:01:00,mfh,41.78
2023-04-19T04:02:00,mfh,41.12
2023-04-19T04:03:00,mfh,41.04
2023-04-19T04:04:00,mfh,41.05
2023-04-19T04:05:00,mfh,41.72
2023-04-19T04:06:00,mfh,41.70
2023-04-19T04:07:00,mfh,41.74
2023-04-19T04:08:00,mfh,41.72
2023-04-19T04:09:00,mfh,41.76
2023-04-19T04:10:00,mfh,41.73
2023-04-19T04:11:00,mfh,42.58
2023-04-19T04:12:00,mfh,42.79
2023-04-19T04:13:00,mfh,42.93
2023-04-19T04:14:00,mfh,43.47
2023-04-19T04:15:00,mfh,43.37
2023-04-19T04:16:00,mfh,44.35
2023-04-19T04:17:00,mfh,44.02
2023-04-19T04:18:00,mfh,41.93
2023-04-19T04:19:00,mfh,41.93
2023-04-19T04:20:00,mfh,41.15
2023-04-19T04:21:00,mfh,41.72
2023-04-19T04:22:00,mfh,41.10
2023-04-19T04:23:00,mfh,41.53
2023-04-19T04:24:00,mfh,41.63
2023-04-19T04:25:00,mfh,41.67
2023-04-19T04:26:00,mfh,41.65
2023-04-19T04:27:00,mfh,41.82
2023-04-19T04:28:00,mfh,42.22
2023-04-19T04:29:00,mfh,42.54
2023-04-19T04:30:00,mfh,43.17
2023-04-19T04:31:00,mfh,50.35
2023-04-19T04:32:00,mfh,51.64
2023-04-19T04:33:00,mfh,52.43
2023-04-19T04:34:00,mfh,52.83
2023-04-19T04:35:00,mfh,52.61
2023-04-19T04:36:00,mfh,52.60
2023-04-19T04:37:00,mfh,53.20
2023-04-19T04:38:00,mfh,52.68
2023-04-19T04:39:00,mfh,51.75
2023-04-19T04:40:00,mfh,51.56
2023-04-19T04:41:00,mfh,51.98
2023-04-19T04:42:00,mfh,52.18
2023-04-19T04:43:00,mfh,52.03
2023-04-19T04:44:00,mfh,52.06
2023-04-19T04:45:00,mfh,52.02
2023-04-19T04:46:00,mfh,52.53
2023-04-19T04:47:00,mfh,52.55
2023-04-19T04:48:00,mfh,51.58
2023-04-19T04:49:00,mfh,51.58
2023-04-19T04:50:00,mfh,51.53
2023-04-19T04:51:00,mfh,52.17
2023-04-19T04:52:00,mfh,52.34
2023-04-19T04:53:00,mfh,52.46
2023-04-19T04:54:00,mfh,52.09
2023-04-19T04:55:00,mfh,52.29
2023-04-19T04:56:00,mfh,52.50
2023-04-19T04:57:00,mfh,52.15
2023-04-19T04:58:00,mfh,51.59
2023-04-19T04:59:00,mfh,51.59
2023-04-19T05:00:00,mfh,51.70
2023-04-19T05:01:00,mfh,70.06
2023-04-19T05:02:00,mfh,74.05
2023-04-19T05:03:00,mfh,73.93
2023-04-19T05:04:00,mfh,74.09
2023-04-19T05:05:00,mfh,74.22
2023-04-19T05:06:00,mfh,74.31
2023-04-19T05:07:00,mfh,72.91
2023-04-19T05:08:00,mfh,72.52
2023-04-19T05:09:00,mfh,72.44
2023-04-19T05:10:00,mfh,72.96
2023-04-19T05:11:00,mfh,72.57
2023-04-19T05:12:00,mfh,72.60
2023-04-19T05:13:00,mfh,72.48
2023-04-19T05:14:00,mfh,72.58
2023-04-19T05:15:00,mfh,72.77
2023-04-19T05:16:00,mfh,72.01
2023-04-19T05:17:00,mfh,72.03
2023-04-19T05:18:00,mfh,72.11
2023-04-19T05:19:00,mfh,72.08
2023-04-19T05:20:00,mfh,73.38
2023-04-19T05:21:00,mfh,72.80
2023-04-19T05:22:00,mfh,72.68
2023-04-19T05:23:00,mfh,72.69
2023-04-19T05:24:00,mfh,72.54
2023-04-19T05:25:00,mfh,72.01
2023-04-19T05:26:00,mfh,72.07
2023-04-19T05:27:00,mfh,72.02
2023-04-19T05:28:00,mfh,72.78
2023-04-19T05:29:00,mfh,72.69
2023-04-19T05:30:00,mfh,72.92
2023-04-19T05:31:00,mfh,73.10
2023-04-19T05:32:00,mfh,73.07
2023-04-19T05:33:00,mfh,73.18
2023-04-19T05:34:00,mfh,73.08
2023-04-19T05:35:00,mfh,72.87
2023-04-19T05:36:00,mfh,72.28
2023-04-19T05:37:00,mfh,73.55
2023-04-19T05:38:00,mfh,72.73
2023-04-19T05:39:00,mfh,72.67
2023-04-19T05:40:00,mfh,72.81
2023-04-19T05:41:00,mfh,72.74
2023-04-19T05:42:00,mfh,73.42
2023-04-19T05:43:00,mfh,72.09
2023-04-19T05:44:00,mfh,71.95
2023-04-19T05:45:00,mfh,72.07
2023-04-19T05:46:00,mfh,72.59
2023-04-19T05:47:00,mfh,72.63
2023-04-19T05:48:00,mfh,72.62
2023-04-19T05:49:00,mfh,72.60
2023-04-19T05:50:00,mfh,72.46
2023-04-19T05:51:00,mfh,73.32
2023-04-19T05:52:00,mfh,72.57
2023-04-19T05:53:00,mfh,72.14
2023-04-19T05:54:00,mfh,72.75
2023-04-19T05:55:00,mfh,72.85
2023-04-19T05:56:00,mfh,72.55
2023-04-19T05:57:00,mfh,73.67
2023-04-19T05:58:00,mfh,73.14
2023-04-19T05:59:00,mfh,80.86
2023-04-19T06:00:00,mfh,81.51
2023-04-19T06:01:00,mfh,84.45
2023-04-19T06:02:00,mfh,84.04
2023-04-19T06:03:00,mfh,83.83
2023-04-19T06:04:00,mfh,84.10
2023-04-19T06:05:00,mfh,84.27
2023-04-19T06:06:00,mfh,83.95
2023-04-19T06:07:00,mfh,84.13
2023-04-19T06:08:00,mfh,84.80
2023-04-19T06:09:00,mfh,84.35
2023-04-19T06:10:00,mfh,84.36
2023-04-19T06:11:00,mfh,84.37
2023-04-19T06:12:00,mfh,84.42
2023-04-19T06:13:00,mfh,83.84
2023-04-19T06:14:00,mfh,83.82
2023-04-19T06:15:00,mfh,83.66
2023-04-19T06:16:00,mfh,84.09
2023-04-19T06:17:00,mfh,84.03
2023-04-19T06:18:00,mfh,84.01
2023-04-19T06:19:00,mfh,78.53
2023-04-19T06:20:00,mfh,78.36
2023-04-19T06:21:00,mfh,78.73
2023-04-19T06:22:00,mfh,78.46
2023-04-19T06:23:00,mfh,78.61
2023-04-19T06:24:00,mfh,79.39
2023-04-19T06:25:00,mfh,79.30
2023-04-19T06:26:00,mfh,79.23
2023-04-19T06:27:00,mfh,78.65
2023-04-19T06:28:00,mfh,78.53
2023-04-19T06:29:00,mfh,78.42
2023-04-19T06:30:00,mfh,78.43
2023-04-19T06:31:00,mfh,78.15
2023-04-19T06:32:00,mfh,78.17
2023-04-19T06:33:00,mfh,78.48
2023-04-19T06:34:00,mfh,78.29
2023-04-19T06:35:00,mfh,78.32
2023-04-19T06:36:00,mfh,78.17
2023-04-19T06:37:00,mfh,78.17
2023-04-19T06:38:00,mfh,77.37
2023-04-19T06:39:00,mfh,77.06
2023-04-19T06:40:00,mfh,77.92
2023-04-19T06:41:00,mfh,77.66
2023-04-19T06:42:00,mfh,77.86
2023-04-19T06:43:00,mfh,77.62
2023-04-19T06:44:00,mfh,77.55
2023-04-19T06:45:00,mfh,78.00
2023-04-19T06:46:00,mfh,78.02
2023-04-19T06:47:00,mfh,77.81
2023-04-19T06:48:00,mfh,77.73
2023-04-19T06:49:00,mfh,77.81
2023-04-19T06:50:00,mfh,78.49
2023-04-19T06:51:00,mfh,77.46
2023-04-19T06:52:00,mfh,77.43
2023-04-19T06:53:00,mfh,77.63
2023-04-19T06:54:00,mfh,78.04
2023-04-19T06:55:00,mfh,77.81
2023-04-19T06:56:00,mfh,78.10
2023-04-19T06:57:00,mfh,78.13
2023-04-19T06:58:00,mfh,78.41
2023-04-19T06:59:00,mfh,78.86
2023-04-19T07:00:00,mfh,78.98
2023-04-19T07:01:00,mfh,78.95
2023-04-19T07:02:00,mfh,78.37
2023-04-19T07:03:00,mfh,78.49
2023-04-19T07:04:00,mfh,78.38
2023-04-19T07:05:00,mfh,78.39
2023-04-19T07:06:00,mfh,78.38
2023-04-19T07:07:00,mfh,78.61
2023-04-19T07:08:00,mfh,78.66
2023-04-19T07:09:00,mfh,78.80
2023-04-19T07:10:00,mfh,78.64
2023-04-19T07:11:00,mfh,77.78
2023-04-19T07:12:00,mfh,77.51
2023-04-19T07:13:00,mfh,77.77
2023-04-19T07:14:00,mfh,77.83
2023-04-19T07:15:00,mfh,77.30
2023-04-19T07:16:00,mfh,77.33
2023-04-19T07:17:00,mfh,77.30
2023-04-19T07:18:00,mfh,77.82
2023-04-19T07:19:00,mfh,77.68
2023-04-19T07:20:00,mfh,77.77
2023-04-19T07:21:00,mfh,77.64
2023-04-19T07:22:00,mfh,77.66
2023-04-19T07:23:00,mfh,77.57
2023-04-19T07:24:00,mfh,77.61
2023-04-19T07:25:00,mfh,77.32
2023-04-19T07:26:00,mfh,77.28
2023-04-19T07:27:00,mfh,76.92
2023-04-19T07:28:00,mfh,76.72
2023-04-19T07:29:00,mfh,77.41
2023-04-19T07:30:00,mfh,77.48
2023-04-19T07:31:00,mfh,77.75
2023-04-19T07:32:00,mfh,77.50
2023-04-19T07:33:00,mfh,77.07
2023-04-19T07:34:00,mfh,77.18
2023-04-19T07:35:00,mfh,77.30
2023-04-19T07:36:00,mfh,77.19
2023-04-19T07:37:00,mfh,77.33
2023-04-19T07:38:00,mfh,77.45
2023-04-19T07:39:00,mfh,77.41
2023-04-19T07:40:00,mfh,76.81
2023-04-19T07:41:00,mfh,76.79
2023-04-19T07:42:00,mfh,77.26
2023-04-19T07:43:00,mfh,77.11
2023-04-19T07:44:00,mfh,77.30
2023-04-19T07:45:00,mfh,77.21
2023-04-19T07:46:00,mfh,77.20
2023-04-19T07:47:00,mfh,78.25
2023-04-19T07:48:00,mfh,77.89
2023-04-19T07:49:00,mfh,77.69
2023-04-19T07:50:00,mfh,77.54
2023-04-19T07:51:00,mfh,76.87
2023-04-19T07:52:00,mfh,76.96
2023-04-19T07:53:00,mfh,76.78
2023-04-19T07:54:00,mfh,77.91
2023-04-19T07:55:00,mfh,77.94
2023-04-19T07:56:00,mfh,78.01
2023-04-19T07:57:00,mfh,78.28
2023-04-19T07:58:00,mfh,77.79
2023-04-19T07:59:00,mfh,78.04
2023-04-19T08:00:00,mfh,78.28
2023-04-19T08:01:00,mfh,78.53
2023-04-19T08:02:00,mfh,78.51
2023-04-19T08:03:00,mfh,78.48
2023-04-19T08:04:00,mfh,77.93
2023-04-19T08:05:00,mfh,78.65
2023-04-19T08:06:00,mfh,78.51
2023-04-19T08:07:00,mfh,78.64
2023-04-19T08:08:00,mfh,78.71
2023-04-19T08:09:00,mfh,79.14
2023-04-19T08:10:00,mfh,79.12
2023-04-19T08:11:00,mfh,79.70
2023-04-19T08:12:00,mfh,86.63
2023-04-19T08:13:00,mfh,86.87
2023-04-19T08:14:00,mfh,87.12
2023-04-19T08:15:00,mfh,86.63
2023-04-19T08:16:00,mfh,86.34
2023-04-19T08:17:00,mfh,86.52
2023-04-19T08:18:00,mfh,86.19
2023-04-19T08:19:00,mfh,86.21
2023-04-19T08:20:00,mfh,86.30
2023-04-19T08:21:00,mfh,86.12
2023-04-19T08:22:00,mfh,85.99
2023-04-19T08:23:00,mfh,85.98
2023-04-19T08:24:00,mfh,85.90
2023-04-19T08:25:00,mfh,89.51
2023-04-19T08:26:00,mfh,89.70
2023-04-19T08:27:00,mfh,89.60
2023-04-19T08:28:00,mfh,89.56
2023-04-19T08:29:00,mfh,89.32
2023-04-19T08:30:00,mfh,89.20
2023-04-19T08:31:00,mfh,89.07
2023-04-19T08:32:00,mfh,89.11
2023-04-19T08:33:00,mfh,89.17
2023-04-19T08:34:00,mfh,88.99
2023-04-19T08:35:00,mfh,88.94
2023-04-19T08:36:00,mfh,88.95
2023-04-19T08:37:00,mfh,88.92
2023-04-19T08:38:00,mfh,88.89
2023-04-19T08:39:00,mfh,88.93
2023-04-19T08:40:00,mfh,88.99
2023-04-19T08:41:00,mfh,88.89
2023-04-19T08:42:00,mfh,88.84
2023-04-19T08:43:00,mfh,88.91
2023-04-19T08:44:00,mfh,88.91
2023-04-19T08:45:00,mfh,88.87
2023-04-19T08:46:00,mfh,86.52
2023-04-19T08:47:00,mfh,86.61
2023-04-19T08:48:00,mfh,86.68
2023-04-19T08:49:00,mfh,86.58
2023-04-19T08:50:00,mfh,86.64
2023-04-19T08:51:00,mfh,86.66
2023-04-19T08:52:00,mfh,89.14
2023-04-19T08:53:00,mfh,89.10
2023-04-19T08:54:00,mfh,88.96
2023-04-19T08:55:00,mfh,89.05
2023-04-19T08:56:00,mfh,88.84
2023-04-19T08:57:00,mfh,88.92
2023-04-19T08:58:00,mfh,88.87
2023-04-19T08:59:00,mfh,88.92
2023-04-19T09:00:00,mfh,88.92
2023-04-19T09:01:00,mfh,88.91
2023-04-19T09:02:00,mfh,88.93
2023-04-19T09:03:00,mfh,88.86
2023-04-19T09:04:00,mfh,88.86
2023-04-19T09:05:00,mfh,88.93
2023-04-19T09:06:00,mfh,87.10
2023-04-19T09:07:00,mfh,87.10
2023-04-19T09:08:00,mfh,87.37
2023-04-19T09:09:00,mfh,87.55
2023-04-19T09:10:00,mfh,87.62
2023-04-19T09:11:00,mfh,87.68
2023-04-19T09:12:00,mfh,87.70
2023-04-19T09:13:00,mfh,87.41
2023-04-19T09:14:00,mfh,87.41
2023-04-19T09:15:00,mfh,87.47
2023-04-19T09:16:00,mfh,87.44
2023-04-19T09:17:00,mfh,87.58
2023-04-19T09:18:00,mfh,87.65
2023-04-19T09:19:00,mfh,87.40
2023-04-19T09:20:00,mfh,87.35
2023-04-19T09:21:00,mfh,89.57
2023-04-19T09:22:00,mfh,89.74
2023-04-19T09:23:00,mfh,89.82
2023-04-19T09:24:00,mfh,89.50
2023-04-19T09:25:00,mfh,89.51
2023-04-19T09:26:00,mfh,89.39
2023-04-19T09:27:00,mfh,89.32
2023-04-19T09:28:00,mfh,89.28
2023-04-19T09:29:00,mfh,89.24
2023-04-19T09:30:00,mfh,89.24
2023-04-19T09:31:00,mfh,89.08
2023-04-19T09:32:00,mfh,89.09
2023-04-19T09:33:00,mfh,89.05
2023-04-19T09:34:00,mfh,89.18
2023-04-19T09:35:00,mfh,89.18
2023-04-19T09:36:00,mfh,89.18
2023-04-19T09:37:00,mfh,89.58
2023-04-19T09:38:00,mfh,89.28
2023-04-19T09:39:00,mfh,89.28
2023-04-19T09:40:00,mfh,85.84
2023-04-19T09:41:00,mfh,85.78
2023-04-19T09:42:00,mfh,85.74
2023-04-19T09:43:00,mfh,85.88
2023-04-19T09:44:00,mfh,85.66
2023-04-19T09:45:00,mfh,87.40
2023-04-19T09:46:00,mfh,87.82
2023-04-19T09:47:00,mfh,87.49
2023-04-19T09:48:00,mfh,87.53
2023-04-19T09:49:00,mfh,87.36
2023-04-19T09:50:00,mfh,87.35
2023-04-19T09:51:00,mfh,87.40
2023-04-19T09:52:00,mfh,87.35
2023-04-19T09:53:00,mfh,89.49
2023-04-19T09:54:00,mfh,89.56
2023-04-19T09:55:00,mfh,89.59
2023-04-19T09:56:00,mfh,89.30
2023-04-19T09:57:00,mfh,89.48
2023-04-19T09:58:00,mfh,89.28
2023-04-19T09:59:00,mfh,89.18
2023-04-19T10:00:00,mfh,89.47
2023-04-19T10:01:00,mfh,89.18
2023-04-19T10:02:00,mfh,89.20
2023-04-19T10:03:00,mfh,89.21
2023-04-19T10:04:00,mfh,89.23
2023-04-19T10:05:00,mfh,89.17
2023-04-19T10:06:00,mfh,89.19
2023-04-19T10:07:00,mfh,89.11
2023-04-19T10:08:00,mfh,89.15
2023-04-19T10:09:00,mfh,89.11
2023-04-19T10:10:00,mfh,87.07
2023-04-19T10:11:00,mfh,89.12
2023-04-19T10:12:00,mfh,89.36
2023-04-19T10:13:00,mfh,89.38
2023-04-19T10:14:00,mfh,89.11
2023-04-19T10:15:00,mfh,89.06
2023-04-19T10:16:00,mfh,89.06
2023-04-19T10:17:00,mfh,89.02
2023-04-19T10:18:00,mfh,89.11
2023-04-19T10:19:00,mfh,88.99
2023-04-19T10:20:00,mfh,89.01
2023-04-19T10:21:00,mfh,88.86
2023-04-19T10:22:00,mfh,88.96
2023-04-19T10:23:00,mfh,88.94
2023-04-19T10:24:00,mfh,89.17
2023-04-19T10:25:00,mfh,88.95
2023-04-19T10:26:00,mfh,88.94
2023-04-19T10:27:00,mfh,88.97
2023-04-19T10:28:00,mfh,89.03
2023-04-19T10:29:00,mfh,88.93
2023-04-19T10:30:00,mfh,88.87
2023-04-19T10:31:00,mfh,88.82
2023-04-19T10:32:00,mfh,88.89
2023-04-19T10:33:00,mfh,88.92
2023-04-19T10:34:00,mfh,89.01
2023-04-19T10:35:00,mfh,88.80
2023-04-19T10:36:00,mfh,88.35
2023-04-19T10:37:00,mfh,88.36
2023-04-19T10:38:00,mfh,88.49
2023-04-19T10:39:00,mfh,88.49
2023-04-19T10:40:00,mfh,88.78
2023-04-19T10:41:00,mfh,88.78
2023-04-19T10:42:00,mfh,88.85
2023-04-19T10:43:00,mfh,88.79
2023-04-19T10:44:00,mfh,88.81
2023-04-19T10:45:00,mfh,89.19
2023-04-19T10:46:00,mfh,89.27
2023-04-19T10:47:00,mfh,88.99
2023-04-19T10:48:00,mfh,89.05
2023-04-19T10:49:00,mfh,89.40
2023-04-19T10:50:00,mfh,89.45
2023-04-19T10:51:00,mfh,89.29
2023-04-19T10:52:00,mfh,89.12
2023-04-19T10:53:00,mfh,89.01
2023-04-19T10:54:00,mfh,89.05
2023-04-19T10:55:00,mfh,89.06
2023-04-19T10:56:00,mfh,89.15
2023-04-19T10:57:00,mfh,89.31
2023-04-19T10:58:00,mfh,89.25
2023-04-19T10:59:00,mfh,87.59
2023-04-19T11:00:00,mfh,87.55
2023-04-19T11:01:00,mfh,87.39
2023-04-19T11:02:00,mfh,87.30
2023-04-19T11:03:00,mfh,87.32
2023-04-19T11:04:00,mfh,87.41
2023-04-19T11:05:00,mfh,89.43
2023-04-19T11:06:00,mfh,89.47
2023-04-19T11:07:00,mfh,89.31
2023-04-19T11:08:00,mfh,89.52
2023-04-19T11:09:00,mfh,89.68
2023-04-19T11:10:00,mfh,89.53
2023-04-19T11:11:00,mfh,89.49
2023-04-19T11:12:00,mfh,89.32
2023-04-19T11:13:00,mfh,89.35
2023-04-19T11:14:00,mfh,89.25
2023-04-19T11:15:00,mfh,89.44
2023-04-19T11:16:00,mfh,89.28
2023-04-19T11:17:00,mfh,89.22
2023-04-19T11:18:00,mfh,89.23
2023-04-19T11:19:00,mfh,89.18
2023-04-19T11:20:00,mfh,89.27
2023-04-19T11:21:00,mfh,89.45
2023-04-19T11:22:00,mfh,89.27
2023-04-19T11:23:00,mfh,89.26
2023-04-19T11:24:00,mfh,89.25
2023-04-19T11:25:00,mfh,89.36
2023-04-19T11:26:00,mfh,89.37
2023-04-19T11:27:00,mfh,89.56
2023-04-19T11:28:00,mfh,89.62
2023-04-19T11:29:00,mfh,89.63
2023-04-19T11:30:00,mfh,89.47
2023-04-19T11:31:00,mfh,89.61
2023-04-19T11:32:00,mfh,89.26
2023-04-19T11:33:00,mfh,89.36
2023-04-19T11:34:00,mfh,89.31
2023-04-19T11:35:00,mfh,89.46
2023-04-19T11:36:00,mfh,89.37
2023-04-19T11:37:00,mfh,89.35
2023-04-19T11:38:00,mfh,89.21
2023-04-19T11:39:00,mfh,89.28
2023-04-19T11:40:00,mfh,89.22
2023-04-19T11:41:00,mfh,89.32
2023-04-19T11:42:00,mfh,89.20
2023-04-19T11:43:00,mfh,89.28
2023-04-19T11:44:00,mfh,89.45
2023-04-19T11:45:00,mfh,89.35
2023-04-19T11:46:00,mfh,89.40
2023-04-19T11:47:00,mfh,89.39
2023-04-19T11:48:00,mfh,89.36
2023-04-19T11:49:00,mfh,89.56
2023-04-19T11:50:00,mfh,90.03
2023-04-19T11:51:00,mfh,89.77
2023-04-19T11:52:00,mfh,89.78
2023-04-19T11:53:00,mfh,89.90
2023-04-19T11:54:00,mfh,89.65
2023-04-19T11:55:00,mfh,89.50
2023-04-19T11:56:00,mfh,89.38
2023-04-19T11:57:00,mfh,87.38
2023-04-19T11:58:00,mfh,87.19
2023-04-19T11:59:00,mfh,87.27
2023-04-19T12:00:00,mfh,87.45
2023-04-19T12:01:00,mfh,87.79
2023-04-19T12:02:00,mfh,87.53
2023-04-19T12:03:00,mfh,87.52
2023-04-19T12:04:00,mfh,87.53
2023-04-19T12:05:00,mfh,87.63
2023-04-19T12:06:00,mfh,87.61
2023-04-19T12:07:00,mfh,87.52
2023-04-19T12:08:00,mfh,87.57
2023-04-19T12:09:00,mfh,87.67
2023-04-19T12:10:00,mfh,87.57
2023-04-19T12:11:00,mfh,87.25
2023-04-19T12:12:00,mfh,86.82
2023-04-19T12:13:00,mfh,87.12
2023-04-19T12:14:00,mfh,87.48
2023-04-19T12:15:00,mfh,87.22
2023-04-19T12:16:00,mfh,87.25
2023-04-19T12:17:00,mfh,87.13
2023-04-19T12:18:00,mfh,87.18
2023-04-19T12:19:00,mfh,87.47
2023-04-19T12:20:00,mfh,87.76
2023-04-19T12:21:00,mfh,87.89
2023-04-19T12:22:00,mfh,87.69
2023-04-19T12:23:00,mfh,87.71
2023-04-19T12:24:00,mfh,87.80
2023-04-19T12:25:00,mfh,87.79
2023-04-19T12:26:00,mfh,87.70
2023-04-19T12:27:00,mfh,87.75
2023-04-19T12:28:00,mfh,87.79
2023-04-19T12:29:00,mfh,89.78
2023-04-19T12:30:00,mfh,89.95
2023-04-19T12:31:00,mfh,89.81
2023-04-19T12:32:00,mfh,89.82
2023-04-19T12:33:00,mfh,89.89
2023-04-19T12:34:00,mfh,88.53
2023-04-19T12:35:00,mfh,84.26
2023-04-19T12:36:00,mfh,84.53
2023-04-19T12:37:00,mfh,84.55
2023-04-19T12:38:00,mfh,84.53
2023-04-19T12:39:00,mfh,84.97
2023-04-19T12:40:00,mfh,84.16
2023-04-19T12:41:00,mfh,84.38
2023-04-19T12:42:00,mfh,84.32
2023-04-19T12:43:00,mfh,84.26
2023-04-19T12:44:00,mfh,84.23
2023-04-19T12:45:00,mfh,84.10
2023-04-19T12:46:00,mfh,83.92
2023-04-19T12:47:00,mfh,77.42
2023-04-19T12:48:00,mfh,76.80
2023-04-19T12:49:00,mfh,77.11
2023-04-19T12:50:00,mfh,77.85
2023-04-19T12:51:00,mfh,79.13
2023-04-19T12:52:00,mfh,77.89
2023-04-19T12:53:00,mfh,78.22
2023-04-19T12:54:00,mfh,79.33
2023-04-19T12:55:00,mfh,79.13
2023-04-19T12:56:00,mfh,78.89
2023-04-19T12:57:00,mfh,79.25
2023-04-19T12:58:00,mfh,79.41
2023-04-19T12:59:00,mfh,79.70
2023-04-19T13:00:00,mfh,79.32
2023-04-19T13:01:00,mfh,79.17
2023-04-19T13:02:00,mfh,79.16
2023-04-19T13:03:00,mfh,84.87
2023-04-19T13:04:00,mfh,85.12
2023-04-19T13:05:00,mfh,85.28
2023-04-19T13:06:00,mfh,85.07
2023-04-19T13:07:00,mfh,85.31
2023-04-19T13:08:00,mfh,85.18
2023-04-19T13:09:00,mfh,85.32
2023-04-19T13:10:00,mfh,85.59
2023-04-19T13:11:00,mfh,84.69
2023-04-19T13:12:00,mfh,84.78
2023-04-19T13:13:00,mfh,84.62
2023-04-19T13:14:00,mfh,84.55
2023-04-19T13:15:00,mfh,84.33
2023-04-19T13:16:00,mfh,84.59
2023-04-19T13:17:00,mfh,84.79
2023-04-19T13:18:00,mfh,84.65